Location: Ingoldesthorpe
(52.8667°N, 0.5167°E)
Time: 06:33:52
(UTC+00:00)

CZ-4C R/B - Pass Details

Date: 19 May 2025
Orbit: 500 x 1483 km, 63.4° (Epoch: 18 June)

Event Time Altitude Azimuth Distance (km) Brightness Sun altitude
Rises 21:14:37 0° 310° (NW) 3,777 7.5 -9.4°
Reaches altitude 10° 21:17:21 10° 301° (WNW) 2,968 6.3 -9.6°
Maximum altitude 21:23:30 31° 243° (WSW) 2,066 4.3 -10.2°
Drops below altitude 10° 21:30:40 10° 186° (S) 3,483 4.9 -10.8°
Enters shadow 21:32:26 - 181° (S) 4,005 5.2 -10.9°
